UTOFI Weather Reports


time (UTC)temp
C
wind
direction
speed
KPH
gust
KPH
rain 1hr
cm
rain 24hr
cm
rain mn
cm
humidity
%
barometer
mb
20260508084733 10 50 4.8 11.3 0.00 0.00 0.00 41 1027.8
20260508082733 8 42 6.4 9.7 0.00 0.00 0.00 51 1027.7
20260508080734 9 60 6.4 9.7 0.00 0.00 0.00 53 1027.8
20260508074734 8 35 6.4 9.7 0.00 0.00 0.00 53 1027.6
20260508072733 8 58 4.8 9.7 0.00 0.00 0.00 51 1027.4
20260508070734 8 28 6.4 9.7 0.00 0.00 0.00 61 1027.2
20260508064733 7 21 6.4 9.7 0.00 0.00 0.00 61 1027.0
20260508062733 7 40 6.4 9.7 0.00 0.00 0.00 62 1026.9
20260508060733 7 36 6.4 9.7 0.00 0.00 0.00 63 1026.7
20260508054734 6 52 6.4 11.3 0.00 0.00 0.00 69 1026.4
20260508052734 6 44 8.0 11.3 0.00 0.00 0.00 71 1026.1
20260508050733 6 46 11.3 12.9 0.00 0.00 0.00 72 1025.8
20260508044734 6 35 9.7 12.9 0.00 0.00 0.00 73 1025.6
20260508042733 6 32 9.7 14.5 0.00 0.00 0.00 75 1025.4
20260508040733 6 25 9.7 12.9 0.00 0.00 0.00 77 1025.2
20260508034733 5 12 9.7 12.9 0.00 0.00 0.00 80 1025.2
20260508032733 5 12 9.7 12.9 0.00 0.00 0.00 81 1025.0
20260508030734 5 11 11.3 16.1 0.00 0.00 0.00 82 1024.7
20260508022731 4 14 16.1 19.3 0.00 0.00 0.00 85 1024.1
20260508020733 5 14 17.7 20.9 0.00 0.00 0.00 82 1023.9
20260508014733 5 14 19.3 24.1 0.00 0.00 0.00 79 1023.7
20260508012732 5 7 19.3 24.1 0.00 0.00 0.00 75 1023.5
20260508010733 5 5 19.3 24.1 0.00 0.00 0.00 75 1023.3
20260508004733 5 358 17.7 20.9 0.00 0.00 0.00 72 1023.1
20260508002733 5 344 12.9 17.7 0.00 0.00 0.00 74 1023.0
20260508000734 5 343 12.9 16.1 0.00 0.00 0.00 71 1022.7
20260507234733 5 350 14.5 17.7 0.00 0.00 0.00 70 1022.5
20260507232732 5 353 16.1 20.9 0.00 0.00 0.00 68 1022.4
20260507230733 6 360 19.3 24.1 0.00 0.00 0.00 60 1022.2
20260507224731 6 354 14.5 19.3 0.00 0.00 0.00 62 1022.0
20260507222732 6 356 16.1 20.9 0.00 0.00 0.00 57 1021.9
20260507220732 6 355 16.1 22.5 0.00 0.00 0.00 57 1021.7
20260507214732 6 351 11.3 19.3 0.00 0.00 0.00 57 1021.5
20260507212731 6 343 9.7 14.5 0.00 0.00 0.00 53 1021.2
20260507210731 6 356 14.5 19.3 0.00 0.00 0.00 50 1021.1
20260507204732 7 350 19.3 24.1 0.00 0.00 0.00 48 1020.7
20260507202731 7 352 17.7 22.5 0.00 0.00 0.00 46 1020.5
20260507200732 7 352 17.7 24.1 0.00 0.00 0.00 52 1020.2
20260507194731 7 349 16.1 22.5 0.00 0.00 0.00 53 1019.9
20260507192731 7 350 16.1 20.9 0.00 0.00 0.00 61 1019.7
20260507190730 7 344 16.1 20.9 0.00 0.00 0.00 60 1019.4
20260507184731 7 342 19.3 24.1 0.00 0.00 0.00 53 1019.2
20260507182730 7 341 17.7 25.7 0.00 0.00 0.00 52 1019.0
20260507180730 8 333 16.1 20.9 0.00 0.00 0.00 52 1018.8
20260507174731 8 340 16.1 20.9 0.00 0.00 0.00 45 1018.7
20260507172730 8 341 16.1 20.9 0.00 0.00 0.00 45 1018.6
20260507170730 8 340 12.9 20.9 0.00 0.00 0.00 54 1018.4
20260507164731 8 337 16.1 20.9 0.00 0.00 0.00 51 1018.5
20260507162731 10 331 19.3 27.4 0.00 0.00 0.00 41 1018.4
20260507160731 10 334 16.1 22.5 0.00 0.00 0.00 41 1018.2
20260507154730 10 334 16.1 20.9 0.00 0.00 0.00 41 1018.1
20260507152730 10 332 16.1 22.5 0.00 0.00 0.00 41 1018.1
20260507150732 10 339 12.9 17.7 0.00 0.00 0.00 39 1017.9
20260507144731 10 339 11.3 16.1 0.00 0.00 0.00 33 1017.8
20260507142731 11 340 12.9 17.7 0.00 0.00 0.00 35 1017.7
20260507140730 10 334 14.5 19.3 0.00 0.00 0.00 43 1017.6
20260507134731 10 330 16.1 20.9 0.00 0.00 0.00 47 1017.6
20260507132730 10 332 17.7 20.9 0.00 0.00 0.00 41 1017.5
20260507130731 11 315 12.9 20.9 0.00 0.00 0.00 46 1017.5
20260507124729 11 322 11.3 16.1 0.00 0.00 0.00 39 1017.3
20260507122729 10 280 11.3 14.5 0.00 0.00 0.00 48 1017.3
20260507120730 8 269 6.4 9.7 0.00 0.00 0.00 50 1017.2
20260507114730 9 188 6.4 11.3 0.00 0.00 0.00 47 1017.2
20260507112729 10 360 6.4 11.3 0.00 0.00 0.00 39 1017.1
20260507110729 9 4 8.0 11.3 0.00 0.00 0.00 37 1017.1
20260507104728 9 24 8.0 12.9 0.00 0.00 0.00 40 1017.0
20260507102729 8 55 9.7 12.9 0.00 0.00 0.00 41 1016.9
20260507100729 8 49 9.7 12.9 0.00 0.00 0.00 45 1016.7
20260507094729 8 55 9.7 14.5 0.00 0.00 0.00 48 1016.6
20260507092729 8 74 11.3 14.5 0.00 0.00 0.00 51 1016.5
20260507090729 9 81 11.3 14.5 0.00 0.00 0.00 50 1016.3